Location: *
(43.7000°S, 168.7000°W)
Time: 11:29:53
(UTC+00:00)

Cosmos 1908 - Pass Details

Date: 07 July 2020
Orbit: 512 x 529 km, 82.5° (Epoch: 10 August)

Event Time Altitude Azimuth Distance (km) Brightness Sun altitude
Rises 18:01:52 0° 188° (S) 2,682 6.5 -8.2°
Reaches altitude 10° 18:04:02 10° 186° (S) 1,782 5.6 -7.8°
Maximum altitude 18:07:57 79° 100° (E) 540 3.4 -7.2°
Drops below altitude 10° 18:11:48 10° 11° (NNE) 1,749 6.4 -6.5°
Sets 18:13:54 0° 10° (N) 2,626 7.3 -6.2°
